This is the latest recevied weather packets stored in our database for station/object KGRR-WX. If no packets are shown the sender has not sent any weather packets the latest 10 day(s).
| Time | Temp. | Humidity | Pressure | Rain* | Wind** | Luminosity | Snow |
|---|---|---|---|---|---|---|---|
| 1788486305 | 21.11° C | 93% | 984.9 hPa | 0 mm | - | - | - |
| 1788485405 | 21.11° C | 93% | 984.9 hPa | 0 mm | - | - | - |
| 1788484505 | 21.67° C | 93% | 985 hPa | 0 mm | - | - | - |
| 1788483606 | 21.67° C | 93% | 985 hPa | 0 mm | - | - | - |
| 1788482705 | 22.22° C | 90% | 984.9 hPa | 0 mm | - | - | - |
| 1788481805 | 21.67° C | 86% | 985.4 hPa | 0 mm | - | - | - |
| 1788480905 | 22.22° C | 86% | 985.4 hPa | 0 mm | - | - | - |
| 1788480005 | 22.22° C | 86% | 985.4 hPa | 0 mm | - | - | - |
| 1788479106 | 22.78° C | 83% | 984.7 hPa | 0 mm | - | - | - |
| 1788478206 | 23.89° C | 82% | 984.5 hPa | 0 mm | - | - | - |
| 1788477305 | 23.89° C | 82% | 984.5 hPa | 0 mm | - | - | - |
| 1788476407 | 24.44° C | 82% | 984.5 hPa | 0 mm | - | - | - |
| 1788475505 | 24.44° C | 87% | 984.7 hPa | 0 mm | - | - | - |
| 1788474606 | 26.11° C | 72% | 985.3 hPa | 0 mm | - | - | - |
| 1788473706 | 26.11° C | 72% | 985.3 hPa | 0 mm | - | - | - |
| 1788472806 | 26.11° C | 72% | 985.3 hPa | 0 mm | - | - | - |
| 1788471905 | 26.67° C | 77% | 985.4 hPa | 0 mm | - | - | - |
| 1788471005 | 26.67° C | 77% | 985.9 hPa | 0 mm | - | - | - |
| 1788470105 | 26.11° C | 77% | 985.9 hPa | 0 mm | - | - | - |
| 1788469205 | 25.56° C | 77% | 985.9 hPa | 0 mm | - | - | - |
| 1788468305 | 25.56° C | 85% | 986 hPa | 2.29 mm | - | - | - |
| 1788467405 | 25° C | 86% | 986.5 hPa | 2.29 mm | - | - | - |
| 1788466505 | 23.89° C | 86% | 986.4 hPa | 2.29 mm | - | - | - |
| 1788465619 | 23.89° C | 70% | 986.3 hPa | 2.29 mm | - | - | - |
| 1788464706 | 23.89° C | 60% | 986.8 hPa | 0 mm | - | - | - |
* Rain latest hour (hover to see other rain measurements)
** Current wind speed in m/s (hover to see current wind gust speed)